Location: A�t �Alizem
(31.2076°N, 8.7872°W)
Time: 15:44:09
(UTC+00:00)

Cosmos 1939 Rocket - Pass Details

Date: 27 November 2020
Orbit: 532 x 584 km, 97.4° (Epoch: 25 January)

Event Time Altitude Azimuth Distance (km) Brightness Sun altitude
Rises 19:08:38 0° 180° (S) 2,659 6.5 -20.2°
Reaches altitude 10° 19:10:47 10° 186° (S) 1,774 5.6 -20.7°
Maximum altitude 19:14:29 46° 261° (W) 723 3.8 -21.4°
Drops below altitude 10° 19:18:12 10° 335° (NNW) 1,796 5.6 -22.2°
Sets 19:20:24 0° 342° (NNW) 2,697 6.4 -22.7°
